368P/NEAT (2018)

Japanese version
Home page
Updated on May 20, 2019

---------------------------------------------------------------------

* Profile

Designation 368P/2018 L3
Recovery Date June 13, 2018
Magnitude 19.4 mag
Recoverer E. Schwab (Egelsbach, Germany), D. Abreu (European Space Agency's Optical Ground Station at Tenerife)

* Pictures

* Orbital Elements

Epoch 2018 Aug. 30.0 TT = JDT 2458360.5
T 2018 Sept. 14.25234 TT                                MPCW
q   2.0677913            (2000.0)            P               Q
n   0.07589185     Peri.  118.80549     +0.92629613     -0.27164352
a   5.5250892      Node   257.97762     +0.17794359     +0.92622952
e   0.6257452      Incl.   15.48457     +0.33213183     +0.26135929
P  12.99
From 713 observations 2005 July 5-2019 Feb. 8, mean residual 0".5.

* Finding Charts

* Magnitudes Graph

        m1 = 13.5 + 5 log d + 10.0 log r

---------------------------------------------------------------------

The orbital elements are published on M.P.E.C. 2019-J142.
The charts are made with StellaNavigator Ver.10 (AstroArts).
The magnitudes graphs are made with Comet for Windows.

---------------------------------------------------------------------

Copyright(C) Seiichi Yoshida (comet@aerith.net). All rights reserved.